TV
NORAD ID: 26559
Int'l Code: 2000-060A
Perigee: 35,791.7 km
Apogee: 35,800.2 km
Inclination: 0.0 °
Period: 1,436.2 minutes
Semi major axis: 42166 km
Launch date: October 6, 2000
Source: Japan (JPN)
Comments: 24 Ku-band; voice and video communications to Japan.
Two Line Element Set (TLE):
1 26559U 00060A 13168.94358788 .00000000 00000-0 10000-3 0 3330
2 26559 000.0068 032.6923 0001006 185.0734 138.2971 01.00263850 46526
Source: AFSPC
NASA's NSSDC Master Catalog entry for NSAT 110